Location: DARK SKY Beskydy - Park tmavé oblohy, www.darkskybeskydy.cz
(49.4926°N, 18.5016°E)
Time: 13:45:15
(UTC+02:00)

Envisat - Visible Passes

Search period start: 18 June 2024 00:00
Search period end: 28 June 2024 00:00
Orbit: 762 x 764 km, 98.3° (Epoch: 18 June)

Date Brightness Start Highest point End Pass type
(mag) Time Alt. Az. Time Alt. Az. Time Alt. Az.
18 Jun 3.7 03:51:32 10° NNE 03:56:32 56° E 04:01:30 10° S visible
19 Jun 4.8 03:14:36 10° NE 03:18:56 27° E 03:23:13 10° SSE visible
20 Jun 5.5 02:38:39 10° ENE 02:41:06 13° E 02:43:32 10° ESE visible
21 Jun 4.1 03:38:30 10° NNE 03:43:21 43° E 03:48:09 10° S visible
22 Jun 5.1 03:01:47 10° NE 03:05:39 22° E 03:09:30 10° SE visible
23 Jun 5.8 02:27:24 10° E 02:27:45 10° E 02:28:06 10° E visible
24 Jun 4.5 03:25:30 10° NNE 03:30:07 34° E 03:34:42 10° SSE visible
25 Jun 5.4 02:49:05 10° NE 02:52:21 17° E 02:55:36 10° SE visible
26 Jun 3.7 03:49:29 10° NNE 03:54:29 54° E 03:59:26 10° S visible
27 Jun 4.8 03:12:34 10° NE 03:16:52 27° E 03:21:06 10° SSE visible
